Regional Weather Roundup
Issued by NWS Upton, NY

Current Version | Previous Version | Text Only | Print | Product List | Glossary On
Versions: 1 2 3 4 5 6 7 8 9 10 11 12 13 14 15 16 17 18 19 20 21 22 23 24 25 26 27 28 29 30 31 32 33 34 35 36 37 38 39 40 41 42 43 44 45 46 47 48 49 50
000
ASUS41 KOKX 260005
RWROKX

REGIONAL WEATHER ROUNDUP
NATIONAL WEATHER SERVICE NEW YORK NY
700 PM EST SUN JAN 25 2015

NOTE: "FAIR" INDICATES FEW OR NO CLOUDS BELOW 12,000 FEET WITH NO
SIGNIFICANT WEATHER AND/OR OBSTRUCTIONS TO VISIBILITY.

NYZ071-072-176-178-NJZ106-104-260100-
NEW YORK CITY METRO AREA


CITY           SKY/WX    TMP DP  RH WIND       PRES   REMARKS
CENTRAL PARK   PTCLDY    36   8  31 VRB3      29.93R
LAGUARDIA APRT MOCLDY    35   9  33 NW14      29.91R WCI  26
KENNEDY INTL   MOCLDY    36   9  32 NW13      29.92R WCI  27
NEWARK/LIBERTY MOCLDY    35   9  33 N13       29.91R WCI  26
BRNX BOT. GARD   N/A    N/A N/A N/A NW6       29.93R
TETERBORO      PTCLDY    34   8  33 N3        29.92R
$$

NYZ177-179-078>081-260100-
LONG ISLAND NEW YORK

CITY           SKY/WX    TMP DP  RH WIND       PRES   REMARKS
FARMINGDALE    PTCLDY    35   9  33 NW10      29.90R WCI  27
ISLIP          MOCLDY    33  12  41 NW7       29.89R WCI  27
SHIRLEY        CLEAR     32  13  45 NW7       29.91R WCI  26
WESTHAMPTON    CLEAR     26  14  60 CALM      29.92R
MONTAUK POINT    N/A     35  14  42 NW12      29.90R WCI  27
$$

NYZ052-065-067-260100-
HUDSON VALLEY

CITY           SKY/WX    TMP DP  RH WIND       PRES   REMARKS
WHITE PLAINS   MOCLDY    30  10  43 NW6       29.89R WCI  24
NEWBURGH       MOCLDY    28  12  50 NW12      29.89R WCI  18
MONTGOMERY     CLOUDY    29   8  41 W5        29.89R WCI  24
POUGHKEEPSIE   MOCLDY    30   8  39 N7        29.91R WCI  23
ALBANY         MOCLDY    19   2  47 NW8       29.97R WCI   9
$$

NJZ001-105-106-008-010-013-015-019>022-104-260100-
NEW JERSEY

CITY           SKY/WX    TMP DP  RH WIND       PRES   REMARKS
NEWARK/LIBERTY MOCLDY    35   9  33 N13       29.91R WCI  26
TETERBORO      PTCLDY    34   8  33 N3        29.92R
CALDWELL       MOCLDY    32   8  36 NW3       29.92R
MORRISTOWN     PTCLDY    32  10  40 N6        29.92R WCI  26
SOMERVILLE     MOCLDY    36  14  40 N6        29.89R WCI  31
SUSSEX         CLOUDY    28   8  43 W5        29.91R WCI  23
ANDOVER          N/A     28   9  44 N3        29.90R
TRENTON        CLOUDY    38  28  67 W3        29.89R
MILLVILLE      CLOUDY    43  33  68 N3        29.89R
ATLANTIC CITY  CLOUDY    41  31  67 NE5       29.89R
WRIGHTSTOWN    CLOUDY    39  30  70 N3        29.88R
TOMS RIVER     CLOUDY    36  30  80 CALM      29.90R
BELMAR         CLOUDY    39  27  60 CALM      29.89R
$$

PAZ047>061-062-071-260100-
EASTERN PENNSYLVANIA

CITY           SKY/WX    TMP DP  RH WIND       PRES   REMARKS
PHILADELPHIA   CLOUDY    42  32  67 N5        29.90R
ALLENTOWN      CLOUDY    36  16  44 N7        29.89R WCI  30
SCRANTON       CLOUDY    26  11  52 N8        29.90R WCI  18
$$

CTZ002-004>006-009-010-012-RIZ004-006-007-MAZ004-011-015-260100-
SOUTHERN NEW ENGLAND
 IN CT

CITY           SKY/WX    TMP DP  RH WIND       PRES   REMARKS
BRADLEY INTL   CLOUDY    26   4  38 NW12      29.91R WCI  16
HARTFORD       MOCLDY    28   7  41 NW6       29.93R WCI  22
DANBURY        MOCLDY    28   7  41 N5        29.90R WCI  23
WTRBRY/OXFORD  PTCLDY    28   5  37 N8        29.87R WCI  20
BRIDGEPORT     CLEAR     32  15  49 W7        29.91R WCI  26
MERIDEN        MOCLDY    30   8  39 N9        29.91R WCI  22
NEW HAVEN      MOCLDY    32  11  41 N7        29.91R WCI  26
CHESTER        FAIR      30  10  43 N7        29.89R WCI  23
GROTON         PTCLDY    28  10  46 NW7       29.90R WCI  21
WILLIMANTIC    PTCLDY    27   5  39 N6        29.91R WCI  20

 IN RI

CITY           SKY/WX    TMP DP  RH WIND       PRES   REMARKS
PROVIDENCE     MOCLDY    28   7  41 NW8       29.90R WCI  20
BLOCK ISLAND   CLEAR     32  10  40 N13       29.88R WCI  22
WESTERLY       PTCLDY    30   8  39 NW6       29.90R WCI  24

 IN MA

CITY           SKY/WX    TMP DP  RH WIND       PRES   REMARKS
BOSTON         CLOUDY    29   8  41 N12       29.89R WCI  19
WORCESTER      MOCLDY    21   5  50 NW10      29.84R WCI  10
WESTFIELD      MOCLDY    24   1  36 VRB5      29.91R WCI  18
PROVINCETOWN   NOT AVBL
NANTUCKET      CLEAR     33  15  47 W14       29.87R WCI  23
$$

ANZ330-335-338-340-345-350-353-355-260100-
COASTAL MARINE OBSERVATIONS


STATION/POSITION TIME  SKY/WX   TEMP    WIND        PRES    VSBY  WAVE
                                AIR SEA DIR/SP/G                  HT/PER
                 (UTC)          (F)     (DEG/KT/KT) (MB)    (MI)  (FT/S)
NY HARB ENTRANCE 0000            40 42  350/ 14/ 16 1012.1          3/11
4S FIRE IS       0000               39                N/A           4/12
20S FIRE ISLAND  2300               41              1012.0          4/12
23SW MTP         0000                                 N/A           6/11
HUDSON CANYON    NOT AVBL
EXECUTION ROCKS  0000            35 35  350/  6/  8   N/A
WESTERN LI SOUND 0000            35     300/  6/ 10   N/A           0
CENTRAL LI SOUND 2300            36 37  300/ 14/ 16   N/A           3/ 4
EASTERN LI SOUND NOT AVBL
ROBBINS REEF     0000            36     340/  6/  9 1011.6
$$


>>>>>>>>>>>>>>>>>>>>>>>>>>>> KEY <<<<<<<<<<<<<<<<<<<<<<<<<<<
>                                                          <
>     SKY/WX - SKY CONDITION/PRESENT WEATHER               <
>     TMP    - TEMPERATURE IN FAHRENHEIT                   <
>     DP     - DEWPOINT IN FAHRENHEIT                      <
>     RH     - RELATIVE HUMIDITY IN PERCENT                <
>     WIND   - DIRECTION AND SPEED IN MPH                  <
>     PRES   - MEAN SEA LEVEL PRESSURE IN INCHES OF HG     <
>     WCI    - WIND CHILL INDEX                            <
>     VSB    - VISIBILITY IN MILES                         <
>     HX     - HEAT INDEX                                  <
>     TC     - TEMPERATURE IN CELSIUS                      <
>     VRB    - VARIABLE WIND DIRECTION                     <
>                                                          <
>>>>>>>>>>>>>>>>>>>>>>>>>>>> KEY <<<<<<<<<<<<<<<<<<<<<<<<<<<





USA.gov is the U.S. government's official web portal to all federal, state and local government web resources and services.